EW0908 Weather Reports


Display with metric or nautical units.
time (UTC)temp
F
wind
direction
speed
MPH
gust
MPH
rain 1hr
in
rain 24hr
in
rain mn
in
humidity
%
barometer
mb
20171212121318 66 310 0.0 2.0 0.00 0.00 0.00 57 1020.7
20171212120818 66 319 0.0 2.0 0.00 0.00 0.00 60 1020.7
20171212120318 66 8 1.0 2.0 0.00 0.00 0.00 56 1020.7
20171212115818 65 214 0.0 0.0 0.00 0.00 0.00 53 1020.7
20171212115318 65 329 0.0 2.0 0.00 0.00 0.00 63 1020.7
20171212114818 65 328 1.0 2.0 0.00 0.00 0.00 65 1020.7
20171212114318 65 311 0.0 2.0 0.00 0.00 0.00 65 1020.7
20171212113817 64 309 0.0 0.0 0.00 0.00 0.00 60 1021.0
20171212113318 64 322 0.0 2.0 0.00 0.00 0.00 62 1021.3
20171212112818 64 347 0.0 2.0 0.00 0.00 0.00 58 1021.3
20171212112318 64 335 0.0 2.0 0.00 0.00 0.00 61 1021.3
20171212111817 64 20 0.0 2.0 0.00 0.00 0.00 64 1021.3
20171212111317 63 308 0.0 2.0 0.00 0.00 0.00 63 1021.7
20171212110818 63 301 0.0 2.0 0.00 0.00 0.00 62 1021.7
20171212110317 63 349 1.0 2.0 0.00 0.00 0.00 62 1021.7
20171212105818 63 304 0.0 2.0 0.00 0.00 0.00 63 1021.5
20171212105317 63 351 0.0 2.0 0.00 0.00 0.00 66 1021.7
20171212104817 63 299 0.0 2.0 0.00 0.00 0.00 68 1021.7
20171212104318 63 325 0.0 2.0 0.00 0.00 0.00 67 1021.7
20171212103818 63 310 0.0 2.0 0.00 0.00 0.00 65 1021.7
20171212103318 63 305 0.0 0.0 0.00 0.00 0.00 64 1021.9
20171212102817 63 304 0.0 0.0 0.00 0.00 0.00 61 1021.9
20171212102317 62 338 0.0 2.0 0.00 0.00 0.00 65 1022.0
20171212101817 62 318 0.0 2.0 0.00 0.00 0.00 67 1022.0
20171212101317 63 331 0.0 2.0 0.00 0.00 0.00 66 1022.0
20171212100817 62 343 0.0 2.0 0.00 0.00 0.00 64 1022.1
20171212100317 62 345 0.0 2.0 0.00 0.00 0.00 66 1022.4
20171212095817 59 316 1.0 5.0 0.00 0.00 0.00 70 1022.4
20171212095318 59 26 2.0 8.0 0.00 0.00 0.00 72 1022.4
20171212094817 60 341 1.0 5.0 0.00 0.00 0.00 68 1022.4
20171212094317 60 299 1.0 5.0 0.00 0.00 0.00 70 1022.4
20171212093817 60 307 2.0 5.0 0.00 0.00 0.00 70 1022.4
20171212093318 61 317 2.0 5.0 0.00 0.00 0.00 71 1022.4
20171212092817 61 327 1.0 5.0 0.00 0.00 0.00 71 1022.7
20171212092317 62 311 2.0 5.0 0.00 0.00 0.00 69 1022.7
20171212091829 62 310 0.0 0.0 0.00 0.00 0.00 59 1022.5
20171212091317 62 309 0.0 2.0 0.00 0.00 0.00 67 1022.7
20171212090817 62 343 1.0 2.0 0.00 0.00 0.00 67 1022.7
20171212090317 61 314 0.0 2.0 0.00 0.00 0.00 64 1022.7
20171212085817 61 314 0.0 2.0 0.00 0.00 0.00 63 1022.7
20171212085318 60 310 0.0 0.0 0.00 0.00 0.00 55 1023.0
20171212084817 59 305 0.0 0.0 0.00 0.00 0.00 62 1023.0
20171212084317 59 295 0.0 2.0 0.00 0.00 0.00 66 1023.0
20171212083817 59 306 0.0 2.0 0.00 0.00 0.00 69 1023.0
20171212083317 59 306 0.0 0.0 0.00 0.00 0.00 69 1023.3
20171212082817 59 308 0.0 0.0 0.00 0.00 0.00 69 1023.4
20171212082317 60 310 0.0 2.0 0.00 0.00 0.00 71 1023.2
20171212081817 61 330 0.0 2.0 0.00 0.00 0.00 70 1023.2
20171212081317 60 9 0.0 2.0 0.00 0.00 0.00 65 1023.1
20171212080817 61 335 0.0 5.0 0.00 0.00 0.00 69 1023.4
20171212080317 60 5 0.0 2.0 0.00 0.00 0.00 63 1023.3
20171212075817 59 127 0.0 0.0 0.00 0.00 0.00 56 1023.0
20171212075317 57 56 0.0 0.0 0.00 0.00 0.00 62 1023.0
20171212074817 57 347 0.0 2.0 0.00 0.00 0.00 69 1023.0
20171212074317 57 349 1.0 2.0 0.00 0.00 0.00 64 1023.0
20171212073817 57 232 0.0 5.0 0.00 0.00 0.00 69 1023.0
20171212073317 56 151 1.0 8.0 0.00 0.00 0.00 72 1023.0
20171212072818 56 302 3.0 5.0 0.00 0.00 0.00 77 1023.0
20171212072317 56 228 1.0 5.0 0.00 0.00 0.00 67 1022.7
20171212071817 55 337 0.0 2.0 0.00 0.00 0.00 71 1022.9
20171212071317 55 67 0.0 2.0 0.00 0.00 0.00 65 1022.7
20171212070817 54 59 1.0 2.0 0.00 0.00 0.00 73 1022.7
20171212070316 54 9 0.0 2.0 0.00 0.00 0.00 68 1022.7
20171212065817 54 88 0.0 2.0 0.00 0.00 0.00 74 1022.7
20171212065317 53 87 1.0 2.0 0.00 0.00 0.00 75 1022.6
20171212064817 53 96 1.0 5.0 0.00 0.00 0.00 76 1022.7
20171212064317 53 88 1.0 5.0 0.00 0.00 0.00 74 1022.7
20171212063817 52 168 0.0 2.0 0.00 0.00 0.00 72 1022.7
20171212063317 52 147 2.0 5.0 0.00 0.00 0.00 77 1022.7
20171212062816 51 123 2.0 5.0 0.00 0.00 0.00 80 1022.7
20171212062317 51 36 0.0 2.0 0.00 0.00 0.00 82 1022.7
20171212061817 50 3 1.0 5.0 0.00 0.00 0.00 82 1022.7
20171212061317 50 120 3.0 5.0 0.00 0.00 0.00 82 1022.5
20171212060817 50 107 0.0 2.0 0.00 0.00 0.00 84 1022.7
20171212060317 49 326 1.0 2.0 0.00 0.00 0.00 85 1022.7
20171212055817 49 182 1.0 5.0 0.00 0.00 0.00 85 1022.7
20171212055316 49 138 2.0 5.0 0.00 0.00 0.00 87 1022.6
20171212054817 49 148 1.0 2.0 0.00 0.00 0.00 87 1022.4
20171212054317 49 114 1.0 5.0 0.00 0.00 0.00 86 1022.4
20171212053817 49 141 1.0 2.0 0.00 0.00 0.00 86 1022.4
20171212053316 49 121 1.0 2.0 0.00 0.00 0.00 86 1022.0
20171212052816 49 117 0.0 2.0 0.00 0.00 0.00 87 1022.0
20171212052318 49 126 0.0 2.0 0.00 0.00 0.00 86 1022.0
20171212051816 49 294 1.0 2.0 0.00 0.00 0.00 86 1022.0
20171212051317 49 180 0.0 2.0 0.00 0.00 0.00 86 1022.0
20171212050816 49 166 0.0 2.0 0.00 0.00 0.00 86 1022.0
20171212050316 49 126 1.0 2.0 0.00 0.00 0.00 87 1022.0
20171212045817 49 61 0.0 2.0 0.00 0.00 0.00 86 1022.0
20171212045316 49 161 0.0 5.0 0.00 0.00 0.00 84 1022.0
20171212044817 49 133 2.0 5.0 0.00 0.00 0.00 84 1022.0
20171212044317 49 134 2.0 5.0 0.00 0.00 0.00 86 1022.0
20171212043816 48 167 1.0 5.0 0.00 0.00 0.00 87 1021.8
20171212043316 49 148 1.0 5.0 0.00 0.00 0.00 88 1022.0
20171212042817 48 193 0.0 2.0 0.00 0.00 0.00 87 1021.7
20171212042317 48 147 1.0 2.0 0.00 0.00 0.00 87 1021.7
20171212041816 48 145 0.0 2.0 0.00 0.00 0.00 86 1021.9
20171212041316 48 150 0.0 2.0 0.00 0.00 0.00 86 1021.7
20171212040817 48 152 0.0 2.0 0.00 0.00 0.00 85 1021.7
20171212040316 49 155 1.0 2.0 0.00 0.00 0.00 86 1021.7
20171212035817 49 189 0.0 0.0 0.00 0.00 0.00 85 1021.7
20171212035316 49 159 1.0 2.0 0.00 0.00 0.00 84 1021.7
20171212034817 49 131 0.0 2.0 0.00 0.00 0.00 85 1021.7
20171212034316 49 135 1.0 2.0 0.00 0.00 0.00 84 1021.7
20171212033817 49 144 0.0 0.0 0.00 0.00 0.00 84 1021.7
20171212033316 49 94 1.0 2.0 0.00 0.00 0.00 84 1021.7
20171212032817 49 159 0.0 2.0 0.00 0.00 0.00 84 1021.7
20171212032316 49 144 1.0 2.0 0.00 0.00 0.00 84 1021.7
20171212031817 49 93 1.0 2.0 0.00 0.00 0.00 83 1021.7
20171212031316 49 27 1.0 2.0 0.00 0.00 0.00 85 1021.7
20171212030816 49 162 1.0 5.0 0.00 0.00 0.00 85 1021.7
20171212030316 49 196 1.0 2.0 0.00 0.00 0.00 85 1021.7
20171212025817 49 204 0.0 2.0 0.00 0.00 0.00 85 1021.7
20171212025316 49 147 1.0 2.0 0.00 0.00 0.00 85 1021.7
20171212024816 49 219 0.0 2.0 0.00 0.00 0.00 84 1021.7
20171212024316 49 175 0.0 5.0 0.00 0.00 0.00 83 1022.0
20171212023816 49 150 2.0 2.0 0.00 0.00 0.00 83 1022.0
20171212023316 49 155 1.0 2.0 0.00 0.00 0.00 83 1022.0
20171212022817 49 191 1.0 2.0 0.00 0.00 0.00 83 1022.0
20171212022316 49 170 1.0 2.0 0.00 0.00 0.00 82 1022.0
20171212021816 49 171 0.0 2.0 0.00 0.00 0.00 83 1022.0
20171212021316 49 171 1.0 2.0 0.00 0.00 0.00 82 1022.0
20171212020817 50 136 0.0 2.0 0.00 0.00 0.00 82 1022.0
20171212020316 50 142 0.0 0.0 0.00 0.00 0.00 81 1022.4
20171212015816 50 77 0.0 0.0 0.00 0.00 0.00 80 1022.4
20171212015316 50 124 0.0 0.0 0.00 0.00 0.00 80 1022.4
20171212014816 50 116 0.0 2.0 0.00 0.00 0.00 81 1022.4
20171212014316 50 280 0.0 0.0 0.00 0.00 0.00 81 1022.4
20171212013817 50 295 0.0 0.0 0.00 0.00 0.00 80 1022.4
20171212013316 50 148 1.0 5.0 0.00 0.00 0.00 78 1022.4
20171212012816 50 148 3.0 8.0 0.00 0.00 0.00 78 1022.4
20171212012316 50 148 5.0 5.0 0.00 0.00 0.00 79 1022.4
20171212011816 50 193 0.0 2.0 0.00 0.00 0.00 80 1022.4
20171212011316 50 193 2.0 2.0 0.00 0.00 0.00 80 1022.4
20171212010816 50 216 1.0 5.0 0.00 0.00 0.00 79 1022.4
20171212010315 50 182 0.0 2.0 0.00 0.00 0.00 78 1022.4
20171212005816 50 295 0.0 0.0 0.00 0.00 0.00 78 1022.4
20171212005316 50 261 0.0 2.0 0.00 0.00 0.00 78 1022.4
20171212004816 50 175 0.0 2.0 0.00 0.00 0.00 77 1022.4
20171212004316 51 296 0.0 2.0 0.00 0.00 0.00 77 1022.4
20171212003816 51 149 1.0 5.0 0.00 0.00 0.00 76 1022.4
20171212003315 51 203 1.0 5.0 0.00 0.00 0.00 75 1022.4
20171212002815 51 207 2.0 5.0 0.00 0.00 0.00 74 1022.4
20171212002316 51 99 0.0 2.0 0.00 0.00 0.00 75 1022.4
20171212001816 51 201 0.0 0.0 0.00 0.00 0.00 75 1022.4
20171212001315 51 289 0.0 2.0 0.00 0.00 0.00 75 1022.4
20171212000816 51 138 1.0 2.0 0.00 0.00 0.00 73 1022.4
20171212000316 51 162 1.0 2.0 0.00 0.00 0.00 73 1022.4
20171211235815 51 143 2.0 2.0 0.00 0.00 0.00 74 1022.4
20171211235316 51 279 0.0 0.0 0.00 0.00 0.00 74 1022.4
20171211234815 51 279 0.0 2.0 0.00 0.00 0.00 73 1022.4
20171211234317 51 133 2.0 5.0 0.00 0.00 0.00 73 1022.4
20171211233816 51 107 0.0 2.0 0.00 0.00 0.00 72 1022.4
20171211233315 51 174 1.0 5.0 0.00 0.00 0.00 71 1022.4
20171211232815 51 142 2.0 2.0 0.00 0.00 0.00 70 1022.4
20171211232316 51 93 0.0 2.0 0.00 0.00 0.00 70 1022.6
20171211231815 51 142 1.0 5.0 0.00 0.00 0.00 69 1022.4
20171211231316 52 137 3.0 8.0 0.00 0.00 0.00 70 1022.4
20171211230816 52 141 5.0 8.0 0.00 0.00 0.00 70 1022.4
20171211230316 52 149 3.0 8.0 0.00 0.00 0.00 71 1022.4
20171211225815 52 206 0.0 2.0 0.00 0.00 0.00 72 1022.4
20171211225315 52 294 0.0 2.0 0.00 0.00 0.00 72 1022.4
20171211224816 53 294 0.0 5.0 0.00 0.00 0.00 72 1022.4
20171211224316 53 122 2.0 8.0 0.00 0.00 0.00 70 1022.4
20171211223815 53 130 5.0 10.0 0.00 0.00 0.00 71 1022.4
20171211223315 54 149 7.0 10.0 0.00 0.00 0.00 70 1022.4
20171211222815 54 144 6.0 10.0 0.00 0.00 0.00 68 1022.4
20171211222316 54 122 7.0 10.0 0.00 0.00 0.00 67 1022.4
20171211221815 53 123 6.0 10.0 0.00 0.00 0.00 65 1022.4
20171211221315 53 141 6.0 10.0 0.00 0.00 0.00 65 1022.5
20171211220826 53 136 7.0 10.0 0.00 0.00 0.00 64 1022.4
20171211220316 53 126 6.0 10.0 0.00 0.00 0.00 64 1022.4
20171211215816 52 129 7.0 10.0 0.00 0.00 0.00 65 1022.7
20171211215315 53 114 5.0 8.0 0.00 0.00 0.00 66 1022.7
20171211214815 53 111 3.0 8.0 0.00 0.00 0.00 66 1022.7
20171211214315 53 130 3.0 5.0 0.00 0.00 0.00 66 1022.7
20171211213815 53 102 1.0 2.0 0.00 0.00 0.00 66 1022.7
20171211213316 53 92 2.0 5.0 0.00 0.00 0.00 65 1022.7
20171211212815 53 108 2.0 5.0 0.00 0.00 0.00 63 1022.7
20171211212315 53 111 0.0 5.0 0.00 0.00 0.00 62 1022.7
20171211211816 53 137 3.0 5.0 0.00 0.00 0.00 62 1022.7
20171211211316 53 122 3.0 5.0 0.00 0.00 0.00 62 1022.7
20171211210815 53 134 2.0 5.0 0.00 0.00 0.00 62 1022.4
20171211210315 53 156 1.0 2.0 0.00 0.00 0.00 62 1022.4
20171211205815 53 124 2.0 5.0 0.00 0.00 0.00 62 1022.7
20171211205316 53 119 4.0 8.0 0.00 0.00 0.00 61 1022.4
20171211204815 53 129 2.0 5.0 0.00 0.00 0.00 61 1022.4
20171211204315 53 123 3.0 5.0 0.00 0.00 0.00 61 1022.4
20171211203815 53 126 2.0 5.0 0.00 0.00 0.00 62 1022.7
20171211203315 53 111 1.0 2.0 0.00 0.00 0.00 61 1022.7
20171211202815 53 109 1.0 2.0 0.00 0.00 0.00 62 1022.4
20171211202315 53 103 2.0 5.0 0.00 0.00 0.00 61 1022.4
20171211201815 53 97 1.0 5.0 0.00 0.00 0.00 62 1022.4
20171211201315 53 87 4.0 5.0 0.00 0.00 0.00 61 1022.4
20171211200815 53 91 3.0 5.0 0.00 0.00 0.00 62 1022.4
20171211200315 53 106 3.0 5.0 0.00 0.00 0.00 62 1022.4
20171211195815 54 99 3.0 5.0 0.00 0.00 0.00 62 1022.4
20171211195315 54 96 2.0 8.0 0.00 0.00 0.00 62 1022.4
20171211194815 54 89 2.0 2.0 0.00 0.00 0.00 62 1022.4
20171211194315 55 81 2.0 2.0 0.00 0.00 0.00 61 1022.4
20171211193815 55 107 2.0 5.0 0.00 0.00 0.00 61 1022.4
20171211193315 55 309 0.0 2.0 0.00 0.00 0.00 58 1022.4
20171211192815 55 251 0.0 5.0 0.00 0.00 0.00 57 1022.4
20171211192315 55 186 1.0 5.0 0.00 0.00 0.00 57 1022.4
20171211191815 55 152 1.0 5.0 0.00 0.00 0.00 56 1022.4
20171211191315 55 202 2.0 5.0 0.00 0.00 0.00 57 1022.1
20171211190814 55 203 2.0 5.0 0.00 0.00 0.00 56 1022.0
20171211190315 55 198 4.0 8.0 0.00 0.00 0.00 56 1022.2
20171211185815 55 152 3.0 8.0 0.00 0.00 0.00 55 1022.0
20171211185315 54 164 5.0 10.0 0.00 0.00 0.00 57 1022.0
20171211184815 54 153 1.0 8.0 0.00 0.00 0.00 59 1022.0
20171211184315 54 150 3.0 8.0 0.00 0.00 0.00 59 1022.0
20171211183815 55 145 5.0 10.0 0.00 0.00 0.00 59 1022.0
20171211183315 55 124 4.0 8.0 0.00 0.00 0.00 58 1022.0
20171211182814 55 156 2.0 5.0 0.00 0.00 0.00 58 1021.7
20171211182315 55 110 2.0 5.0 0.00 0.00 0.00 57 1021.7
20171211181815 55 139 1.0 5.0 0.00 0.00 0.00 56 1021.7
20171211181315 55 147 0.0 5.0 0.00 0.00 0.00 58 1021.7
20171211180815 55 152 1.0 8.0 0.00 0.00 0.00 57 1021.7
20171211180315 55 107 3.0 10.0 0.00 0.00 0.00 57 1021.7
20171211175815 55 132 3.0 8.0 0.00 0.00 0.00 57 1021.7
20171211175315 55 122 3.0 8.0 0.00 0.00 0.00 56 1021.7
20171211174815 55 163 2.0 5.0 0.00 0.00 0.00 55 1021.7
20171211174315 55 140 2.0 2.0 0.00 0.00 0.00 56 1021.7
20171211173814 55 98 1.0 2.0 0.00 0.00 0.00 57 1021.7
20171211173315 55 130 1.0 2.0 0.00 0.00 0.00 56 1021.7
20171211172815 55 163 0.0 0.0 0.00 0.00 0.00 57 1021.7
20171211172315 55 119 0.0 2.0 0.00 0.00 0.00 57 1021.4
20171211171815 55 131 0.0 5.0 0.00 0.00 0.00 57 1021.7
20171211171314 55 117 1.0 5.0 0.00 0.00 0.00 56 1021.5
20171211170814 55 128 1.0 5.0 0.00 0.00 0.00 56 1021.5
20171211170314 56 162 3.0 5.0 0.00 0.00 0.00 55 1021.4
20171211165815 56 114 2.0 5.0 0.00 0.00 0.00 54 1021.7
20171211165315 56 120 1.0 5.0 0.00 0.00 0.00 55 1021.5
20171211164814 56 130 5.0 10.0 0.00 0.00 0.00 57 1021.3
20171211164314 56 163 3.0 5.0 0.00 0.00 0.00 58 1021.3
20171211163814 56 147 6.0 10.0 0.00 0.00 0.00 56 1021.4
20171211163315 56 132 5.0 8.0 0.00 0.00 0.00 56 1021.3
20171211162815 56 145 6.0 10.0 0.00 0.00 0.00 54 1021.3
20171211162315 56 141 6.0 10.0 0.00 0.00 0.00 53 1021.3
20171211161815 57 145 6.0 10.0 0.00 0.00 0.00 54 1021.3
20171211161315 57 140 6.0 13.0 0.00 0.00 0.00 53 1021.3
20171211160814 57 144 6.0 10.0 0.00 0.00 0.00 54 1021.3
20171211160314 57 122 5.0 13.0 0.00 0.00 0.00 54 1021.3
20171211155814 57 138 6.0 10.0 0.00 0.00 0.00 53 1021.3
20171211155314 58 156 8.0 10.0 0.00 0.00 0.00 53 1021.3
20171211154814 58 149 9.0 13.0 0.00 0.00 0.00 53 1021.3
20171211154314 58 145 8.0 13.0 0.00 0.00 0.00 53 1021.3
20171211153814 58 173 5.0 8.0 0.00 0.00 0.00 53 1021.3
20171211153314 58 150 6.0 10.0 0.00 0.00 0.00 52 1021.3
20171211152815 58 138 7.0 13.0 0.00 0.00 0.00 53 1021.0
20171211152314 58 141 6.0 13.0 0.00 0.00 0.00 54 1021.0
20171211151814 58 143 3.0 8.0 0.00 0.00 0.00 55 1021.0
20171211151314 58 100 3.0 8.0 0.00 0.00 0.00 55 1021.0
20171211150814 58 124 2.0 5.0 0.00 0.00 0.00 56 1021.0
20171211150314 58 132 1.0 5.0 0.00 0.00 0.00 55 1021.0
20171211145815 58 116 1.0 2.0 0.00 0.00 0.00 55 1021.3
20171211145314 58 118 1.0 2.0 0.00 0.00 0.00 55 1021.3
20171211144814 59 97 1.0 5.0 0.00 0.00 0.00 54 1021.3
20171211144314 59 123 2.0 2.0 0.00 0.00 0.00 54 1021.0
20171211143814 59 129 2.0 5.0 0.00 0.00 0.00 54 1021.0
20171211143314 60 95 1.0 2.0 0.00 0.00 0.00 54 1021.0
20171211142815 60 102 0.0 2.0 0.00 0.00 0.00 54 1021.0
20171211142314 60 84 1.0 2.0 0.00 0.00 0.00 53 1021.0
20171211141814 60 153 1.0 2.0 0.00 0.00 0.00 52 1021.0
20171211141314 60 353 0.0 2.0 0.00 0.00 0.00 53 1021.2
20171211140814 60 288 0.0 2.0 0.00 0.00 0.00 51 1021.1
20171211140314 60 70 0.0 2.0 0.00 0.00 0.00 54 1021.0
20171211135814 60 7 1.0 2.0 0.00 0.00 0.00 54 1021.1
20171211135314 60 7 2.0 5.0 0.00 0.00 0.00 54 1021.0
20171211134814 60 294 0.0 2.0 0.00 0.00 0.00 52 1021.0
20171211134314 60 310 0.0 2.0 0.00 0.00 0.00 53 1021.0
20171211133814 60 355 0.0 2.0 0.00 0.00 0.00 52 1021.3
20171211133314 60 333 0.0 2.0 0.00 0.00 0.00 53 1021.1
20171211132814 60 329 2.0 5.0 0.00 0.00 0.00 53 1021.3
20171211132313 59 305 1.0 2.0 0.00 0.00 0.00 50 1021.3
20171211131814 59 283 0.0 2.0 0.00 0.00 0.00 52 1021.3
20171211131313 59 21 1.0 5.0 0.00 0.00 0.00 52 1021.3
20171211130814 58 292 3.0 8.0 0.00 0.00 0.00 54 1021.3
20171211130314 58 283 3.0 5.0 0.00 0.00 0.00 54 1021.3
20171211125814 58 7 1.0 8.0 0.00 0.00 0.00 52 1021.3
20171211125314 58 311 3.0 8.0 0.00 0.00 0.00 53 1021.3
20171211124814 58 320 3.0 8.0 0.00 0.00 0.00 54 1021.3
20171211124313 58 319 3.0 8.0 0.00 0.00 0.00 54 1021.3
20171211123814 58 57 2.0 10.0 0.00 0.00 0.00 55 1021.3
20171211123314 58 278 5.0 10.0 0.00 0.00 0.00 54 1021.3
20171211122814 58 314 5.0 10.0 0.00 0.00 0.00 54 1021.3
20171211122313 58 302 5.0 10.0 0.00 0.00 0.00 57 1021.3
20171211121814 58 318 5.0 10.0 0.00 0.00 0.00 55 1021.3